Powrót do katalogu

EKRAN 2

AktywnyŁącznośćGEO
NORAD 10365·PAYLOAD·🇷🇺 Russia

Wystrzelony Sep 20, 1977 z Baikonur Cosmodrome

Loading…

TLE

ŚwieżeSource: Space-Track

Epoka: Sep 14, 2026, 14:10 UTC

1 10365U 77092A   26257.59061441 -.00000116  00000-0  00000-0 0  9991
2 10365   4.0127 273.4556 0036492   6.9558   3.9646  1.00216354135751

Śledź EKRAN 2 w czasie rzeczywistym z AllMySat

Download on the App Store